Simultaneous Nadir Overpasses (SNOs) Predictions

Prediction of SNOs between GOES-16 and AQUA Satellite Orbit:

Table of predicted SNOs for the next 14.0 days since TLE Epoch: 7/25/2025
Index Date Time (GOES-16) GOES-16 Lat,Lon AQUA Lat,Lon Distance(km) Time Diff (sec)
1 07/26/2025 09:28:02 -0.03,-104.71 -0.94,-100.57 472.10 80
2 07/26/2025 21:47:18 0.03,-104.72 -0.07,-105.22 56.68 80
3 07/29/2025 09:48:40 -0.04,-104.73 -0.02,-104.85 13.41 80
4 07/31/2025 21:47:30 0.04,-104.74 0.08,-104.49 27.75 80
5 08/01/2025 10:06:38 -0.04,-104.74 0.90,-109.12 498.24 80
6 08/03/2025 09:43:32 -0.04,-104.74 -0.19,-104.12 71.51 80
7 08/03/2025 22:02:48 0.05,-104.75 -0.80,-108.77 457.75 80
8 08/05/2025 21:45:01 0.05,-104.75 0.26,-103.76 112.05 80
9 08/06/2025 10:04:09 -0.06,-104.75 0.70,-108.39 413.75 80
10 08/08/2025 09:41:02 -0.06,-104.75 -0.38,-103.38 156.06 80
